This demonstration page uses our WeatherBlox Daily Observations layout. Learn more.

Left ArrowRight Arrow

36.17497, -115.13722

Hourly Observations for March 9, 2018

Temp ( °F °C ) Dew Point ( °F °C ) Humidity (%) Winds ( mph kmh ) Pressure ( in mb ) Visibility ( mi km ) Precip ( " mm )
12:53 am 00:53 Clear 49 9.4 14 -10 25 25 NW 7 11 29.98 1015 10 16 0.00 0.00
1:53 am 01:53 Clear 49 9.4 14 -10 25 25 WNW 7 11 29.96 1015 10 16 0.00 0.00
2:53 am 02:53 Clear 50 10 9 -12.8 19 19 NNW 5 7 29.94 1014 10 16 0.00 0.00
3:53 am 03:53 Clear 46 7.8 15 -9.4 29 29 Calm 29.96 1014 10 16 0.00 0.00
4:53 am 04:53 Clear 47 8.3 15 -9.4 28 28 Calm 29.96 1015 10 16 0.00 0.00
5:53 am 05:53 Clear 46 7.8 16 -8.9 30 30 W 5 7 29.98 1015 10 16 0.00 0.00
6:53 am 06:53 Sunny 48 8.9 17 -8.3 29 29 WNW 6 9 29.99 1016 10 16 0.00 0.00
7:53 am 07:53 Sunny 54 12.2 16 -8.9 22 22 Calm 30.00 1016 10 16 0.00 0.00
8:53 am 08:53 Sunny 60 15.6 12 -11.1 15 15 Calm 30.00 1016 10 16 0.00 0.00
9:53 am 09:53 Sunny 63 17.2 10 -12.2 12 12 Calm 30.00 1016 10 16 0.00 0.00
10:53 am 10:53 Sunny 66 18.9 9 -12.8 10 10 E 6 9 29.98 1015 10 16 0.00 0.00
11:53 am 11:53 Sunny 67 19.4 8 -13.3 10 10 undefined N/A 29.96 1014 10 16 0.00 0.00
12:53 pm 12:53 Sunny 70 21.1 9 -12.8 9 9 E 6 9 29.92 1013 10 16 0.00 0.00
1:53 pm 13:53 Sunny 71 21.7 10 -12.2 9 9 VRB 3 6 29.89 1012 10 16 0.00 0.00
2:53 pm 14:53 Sunny 71 21.7 11 -11.7 10 10 E 5 7 29.87 1011 10 16 0.00 0.00
3:53 pm 15:53 Sunny 72 22.2 12 -11.1 10 10 Calm 29.85 1011 10 16 0.00 0.00
4:53 pm 16:53 Sunny 72 22.2 13 -10.6 10 10 ESE 6 9 29.85 1011 10 16 0.00 0.00
5:53 pm 17:53 Clear 68 20 14 -10 12 12 ENE 6 9 29.85 1011 10 16 0.00 0.00
6:53 pm 18:53 Clear 67 19.4 15 -9.4 13 13 NNE 7 11 29.86 1011 10 16 0.00 0.00
7:53 pm 19:53 Clear 64 17.8 16 -8.9 15 15 N 3 6 29.87 1012 10 16 0.00 0.00
8:53 pm 20:53 Clear 61 16.1 18 -7.8 19 19 WNW 3 6 29.86 1011 10 16 0.00 0.00
9:53 pm 21:53 Clear 59 15 19 -7.2 21 21 W 5 7 29.87 1012 10 16 0.00 0.00
10:53 pm 22:53 Clear 57 13.9 21 -6.1 25 25 NNW 6 9 29.88 1012 10 16 0.00 0.00
11:53 pm 23:53 Clear 55 12.8 21 -6.1 26 26 VRB 3 6 29.87 1011 10 16 0.00 0.00

Powered by AerisWeather